Location: ??????
(55.2000°N, 38.3000°E)
Time: 08:25:02
(UTC+00:00)

Okean 2 Rocket - Pass Details

Date: 15 November 2025
Orbit: 611 x 634 km, 82.5° (Epoch: 14 December)

Event Time Altitude Azimuth Distance (km) Brightness Sun altitude
Rises 03:38:37 0° 343° (NNW) 2,893 6.2 -11.3°
Reaches altitude 10° 03:40:56 10° 337° (NNW) 1,982 5.3 -11.0°
Maximum altitude 03:45:03 41° 267° (W) 892 3.4 -10.5°
Drops below altitude 10° 03:49:09 10° 197° (SSW) 1,969 5.7 -9.9°
Sets 03:51:26 0° 191° (S) 2,871 6.6 -9.6°
